Location: Ahstedt
(52.2048°N, 10.1060°E)
Time: 00:08:29
(UTC+00:00)

Cosmos 1140 Rocket - Pass Details

Date: 18 January 2026
Orbit: 739 x 763 km, 74.1° (Epoch: 17 February)

Event Time Altitude Azimuth Distance (km) Brightness Sun altitude
Rises 04:29:30 0° 185° (S) 3,163 6.7 -25.3°
Reaches altitude 10° 04:31:54 10° 180° (S) 2,246 5.9 -24.9°
Maximum altitude 04:36:46 49° 107° (ESE) 962 4.3 -24.2°
Drops below altitude 10° 04:41:42 10° 34° (NE) 2,273 6.3 -23.4°
Sets 04:44:08 0° 29° (NNE) 3,205 7.0 -23.0°
